Tracking 18942 objects as of 18-Jan-2018
HD Live streaming from Space Station
objects crossing your sky now

COSMOS 203

Track COSMOS 203 now!
10-day predictions
COSMOS 203 is classified as:


NORAD ID: 3129
Int'l Code: 1968-011A
Perigee: 1,189.9 km
Apogee: 1,207.4 km
Inclination: 74.1 °
Period: 109.2 minutes
Semi major axis: 7569 km
RCS: 3.3183 m2 (large)
Launch date: February 20, 1968
Source: Commonwealth of Independent States (former USSR) (CIS)
Launch site: PLESETSK MISSILE AND SPACE COMPLEX (PKMTR)
aabbcc
Your satellite tracking list
Your tracking list is empty




NASA's NSSDC Master Catalog

Two Line Element Set (TLE):
1  3129U 68011A   18017.96779862 -.00000100 +00000-0 -20707-3 0  9994
2  3129 074.0518 028.9518 0011555 130.2758 252.1218 13.18213955401136
Source of the keplerian elements: AFSPC